Temperature
16 16 16 16 16 16 16 15 16 16 16 15 15 15 15 15 15 15 15 15 15 15 15 15 15 15 15 15 16 16 15 15 15 15 15 15 15 15 15 15 15 15 15
16 16 16 16 16 16 16 16 15 15 15 15 15 15 15 15 15 15 15 15 15 15 15 15 15 15 15 15 15 15 15 15 15 15 15 15 15 15 15 15 15 15 15
16 16 16 16 16 16 16 15 15 15 15 15 15 15 15 15 15 15 15 15 15 15 15 15 15 15 15 15 15 15 15 15 15 15 15 15 15 15 15 15 15 15 15
15 15 16 16 16 16 15 15 15 15 15 15 15 15 15 15 15 15 14 15 15 15 15 14 15 15 15 15 15 15 15 15 15 14 14 14 14 14 14 15 15 15 15
15 15 16 16 16 15 15 15 15 15 15 15 15 15 15 15 15 15 15 15 15 14 14 14 14 15 15 15 15 15 14 14 14 14 14 14 14 14 14 14 15 15 15
14 15 15 15 15 15 15 15 15 15 15 15 15 15 15 15 15 15 15 15 14 14 14 14 14 14 14 14 14 14 14 14 14 14 14 14 14 14 14 14 14 14 14
14 15 15 15 15 15 15 15 15 15 15 15 15 15 15 15 14 14 14 14 14 14 14 14 14 14 14 14 14 14 14 14 14 13 13 13 14 14 14 14 14 14 14
14 15 15 15 15 15 15 15 15 15 15 15 15 14 14 14 14 14 14 14 14 14 14 14 14 14 14 14 14 14 14 13 13 13 13 13 13 13 13 14 14 14 14
14 14 14 15 15 15 15 15 15 15 14 14 14 14 14 14 14 14 14 14 14 14 14 14 14 14 14 14 14 13 13 13 13 13 13 13 13 13 13 13 13 14 14
14 14 14 14 14 14 14 14 14 14 14 14 14 14 14 14 14 14 14 14 14 14 14 14 14 13 13 13 13 13 13 13 12 12 12 12 12 13 13 13 13 13 13
14 14 14 14 14 14 14 14 14 14 14 14 14 14 13 13 13 13 13 13 13 13 13 13 13 13 13 13 13 13 12 12 12 12 12 12 12 12 12 13 13 13 13
13 13 14 14 14 13 14 14 13 13 13 13 13 13 13 13 13 13 13 13 13 13 13 13 13 13 13 13 12 12 12 12 12 12 12 12 12 12 12 12 12 12 12
13 13 13 13 13 13 13 13 13 13 13 13 13 13 13 13 13 13 13 13 13 13 13 13 13 12 12 12 12 12 11 11 11 11 11 11 12 12 12 12 12 12 12
13 13 13 13 13 13 13 13 13 13 13 13 13 13 13 13 13 12 12 12 12 12 12 12 12 12 12 12 11 11 11 11 11 11 11 11 11 11 11 11 11 11 11
13 13 13 13 13 13 13 13 13 13 13 13 13 12 12 12 12 12 12 12 12 12 12 12 12 11 11 11 11 11 11 11 11 11 11 11 11 11 11 11 11 11 11
12 13 13 13 13 13 13 13 13 12 12 12 12 12 12 12 12 12 12 12 12 12 12 11 11 11 11 11 10 10 10 10 10 10 10 10 10 10 11 11 11 11 11
12 12 12 12 12 12 12 12 12 12 12 12 12 12 12 12 12 12 12 11 11 11 11 11 11 11 11 10 10 10 10 10 10 10 10 10 10 10 10 10 10 10 10
12 12 12 12 12 12 12 12 12 12 12 12 12 12 12 12 12 11 11 11 11 11 11 11 10 10 10 10 10 10 10 10 10 10 10 10 10 10 10 10 10 10 10
12 12 12 12 12 12 12 12 11 11 11 11 11 11 11 11 11 11 11 11 11 10 10 10 10 10 10 10 10 9 9 9 9 9 9 9 9 9 9 9 9 9 9
11 11 11 11 11 11 11 11 11 11 11 11 11 11 11 11 11 11 11 10 10 10 10 10 10 10 10 9 9 9 9 9 9 9 9 9 9 9 9 9 9 9 9
11 11 11 11 11 11 11 11 11 11 11 11 11 11 10 10 10 10 10 10 10 10 10 9 9 9 9 9 9 9 9 8 8 8 8 8 8 8 8 8 8 8 8
11 11 11 11 11 11 11 10 10 10 10 10 10 10 10 10 10 10 10 10 10 9 9 9 9 9 9 8 8 8 8 8 8 8 8 8 8 8 8 7 7 7 7
10 10 10 10 10 10 10 10 10 10 10 10 10 10 10 10 10 10 9 9 9 9 9 9 9 8 8 8 8 8 7 7 7 7 7 7 7 7 7 7 7 7 7
10 10 10 10 10 10 10 10 10 10 10 10 9 10 9 9 9 9 9 9 9 9 9 9 8 8 8 8 8 7 7 7 6 6 6 6 6 6 6 6 6 6 6
10 10 10 10 10 10 10 10 9 9 9 9 9 9 9 9 9 9 9 9 8 8 8 8 8 8 8 7 7 7 7 6 6 5 5 6 6 6 6 6 6 6 6
10 10 10 10 10 9 9 9 9 9 9 9 8 8 8 8 8 8 8 8 8 8 8 8 8 7 7 7 7 7 6 6 6 5 5 5 5 5 5 5 5 5 5
Wind_Speed
9 12 13 12 12 11 11 10 10 9 9 9 10 10 10 10 10 10 10 10 11 11 11 11 11 11 10 10 10 10 9 8 7 7 6 5 5 6 6 6 7 6 7
11 14 14 13 12 12 11 11 10 9 9 9 9 9 10 10 10 10 10 10 10 11 11 11 11 10 10 9 9 8 8 7 6 5 4 2 2 4 5 6 6 6 6
12 15 14 13 13 12 11 11 10 10 9 9 9 9 9 9 9 9 9 10 10 10 10 11 11 11 10 10 9 8 7 7 6 5 4 1 1 2 3 4 4 4 4
11 14 13 13 13 12 11 11 10 10 9 9 9 9 9 9 9 9 10 10 10 10 10 10 10 10 10 10 9 8 7 7 8 8 4 2 2 3 3 3 3 3 3
11 14 13 13 13 12 12 11 10 10 9 9 9 9 9 9 9 10 10 10 10 10 10 10 10 10 9 9 9 8 8 9 10 8 4 4 6 5 4 3 3 3 3
10 14 14 13 13 12 12 11 11 10 9 9 8 8 8 9 9 9 10 10 9 9 9 9 9 9 9 9 8 8 9 10 11 7 5 6 7 7 6 5 4 3 3
9 13 14 13 13 13 12 11 10 10 9 9 8 8 9 9 9 9 9 9 9 9 9 9 8 8 8 8 8 8 9 11 8 6 6 7 7 6 6 6 5 4 4
8 12 14 13 13 12 12 11 10 10 9 9 8 8 8 9 9 9 9 9 9 9 9 8 8 8 8 8 8 8 9 10 8 6 6 8 8 7 6 6 6 6 5
8 9 12 13 13 13 12 11 10 10 9 9 8 8 8 8 8 8 8 8 8 8 8 8 8 7 7 7 7 7 9 10 9 6 7 8 9 8 8 7 7 6 6
6 6 7 11 12 13 12 11 11 10 9 8 8 7 6 6 7 7 7 7 7 7 8 7 7 6 6 6 6 7 9 10 7 8 9 9 9 8 7 8 8 7 7
6 6 6 6 8 11 11 10 11 9 8 7 6 6 5 5 5 5 6 5 6 6 6 6 6 6 6 5 5 7 9 8 8 9 10 10 10 9 8 8 8 8 8
6 6 5 5 6 7 8 9 8 8 7 6 5 5 4 5 3 4 4 3 3 4 5 5 5 5 5 5 6 7 7 9 9 9 10 12 12 11 10 9 9 9 9
6 6 5 5 5 5 4 6 5 6 5 6 5 3 4 6 5 5 4 3 3 4 4 5 5 5 5 5 5 5 7 8 7 8 10 12 12 12 11 10 10 10 10
6 6 6 5 5 5 5 5 4 5 4 5 4 4 5 4 3 3 3 3 3 4 4 5 4 5 6 6 6 6 7 7 6 7 8 10 11 11 11 11 10 10 10
6 6 6 5 5 5 4 3 4 5 4 6 5 5 5 3 2 3 3 4 4 5 5 5 5 5 5 6 6 6 6 6 6 7 7 9 10 10 11 11 11 11 11
5 6 6 6 6 6 4 3 4 5 4 6 6 5 5 4 3 3 3 4 4 5 5 5 5 4 3 4 4 5 6 6 7 7 7 7 9 10 10 11 11 11 11
5 5 6 6 6 6 5 4 5 4 5 5 5 5 6 5 5 4 3 2 4 5 5 5 5 4 3 3 3 4 4 5 6 7 7 7 6 8 9 10 10 11 11
6 6 6 6 6 6 5 4 4 5 5 4 5 5 5 5 5 4 2 2 4 5 4 2 2 3 3 3 3 3 2 3 4 5 6 7 7 7 7 8 9 10 11
6 6 6 6 6 6 6 5 5 5 4 4 5 5 4 4 4 4 3 3 4 3 3 2 3 3 3 3 3 1 1 2 2 3 4 5 6 7 7 6 7 9 10
6 7 7 7 6 6 5 4 3 3 2 3 4 4 3 3 4 3 2 3 4 2 2 2 2 2 2 2 3 2 1 1 0 1 2 3 5 5 6 6 6 6 8
6 7 7 7 6 5 4 3 3 3 2 2 3 3 3 3 3 3 2 2 3 2 2 2 2 2 2 2 2 2 2 1 2 1 2 2 3 3 4 5 5 5 6
6 6 7 6 6 5 4 3 3 3 3 2 2 3 2 2 2 1 2 1 2 2 2 2 2 2 2 2 2 2 2 2 1 1 1 1 1 2 2 2 3 4 5
5 6 6 6 6 6 5 3 3 3 2 1 1 2 1 1 2 2 2 1 1 1 1 1 1 1 1 2 1 1 1 1 2 1 2 1 1 0 0 0 1 2 3
5 5 6 5 5 5 5 4 4 3 3 3 2 2 2 2 1 1 0 1 1 0 0 1 1 1 0 1 1 0 1 1 1 3 2 1 1 1 1 1 0 0 2
6 5 5 5 4 5 5 5 3 2 2 2 2 2 2 2 2 2 1 1 1 1 1 1 1 1 1 1 1 1 2 1 2 2 3 3 2 2 2 1 1 1 1
6 6 6 5 4 4 4 4 4 3 2 2 2 2 2 2 2 3 2 1 1 1 1 1 1 2 2 2 1 1 1 1 2 2 3 3 4 3 2 2 2 2 2
Wind_Direction
114 118 124 119 113 108 105 103 101 95 91 87 84 78 73 72 70 66 65 64 61 57 53 51 50 49 47 47 46 46 45 45 46 48 47 49 59 54 46 41 38 47 67
118 121 125 120 115 110 105 101 100 97 93 89 85 81 76 72 70 66 63 61 59 56 54 51 50 47 44 42 42 41 41 40 36 36 34 22 66 67 55 46 41 45 59
118 122 122 120 116 111 107 101 98 97 94 91 87 82 78 75 70 66 64 61 59 56 53 51 49 46 43 42 39 35 30 23 6 348 334 303 168 110 77 56 44 40 48
114 118 119 122 118 114 109 104 100 97 95 92 88 81 78 76 73 68 64 61 57 54 52 49 46 44 42 40 36 28 15 359 343 326 323 348 46 97 100 69 48 35 35
109 113 115 122 119 114 111 108 104 99 95 93 88 82 79 76 73 69 64 60 55 53 49 45 42 41 38 34 29 21 7 351 338 332 344 20 46 67 72 56 40 27 23
107 112 116 121 120 116 113 111 106 100 95 92 91 86 83 78 73 68 63 60 55 51 47 43 39 39 36 32 25 15 1 347 334 342 11 42 48 51 46 34 23 8 356
109 114 120 120 122 118 115 112 108 103 99 94 91 88 84 79 75 70 64 60 55 50 46 41 38 36 33 29 20 7 356 345 340 350 26 43 44 41 30 20 13 1 350
114 120 127 125 123 122 118 114 110 106 101 95 90 87 86 82 78 73 65 59 54 49 45 41 38 35 30 27 18 2 350 344 348 7 38 43 38 36 26 18 11 5 4
112 123 133 135 130 126 120 116 112 108 104 99 94 92 94 91 85 76 66 57 51 47 44 39 35 30 26 21 12 358 345 341 342 6 37 38 36 35 28 22 12 3 353
113 119 126 135 136 134 126 123 120 114 113 110 104 103 106 105 95 86 71 60 52 47 42 37 31 23 16 11 2 351 342 340 4 39 42 31 32 29 25 19 13 9 3
123 124 125 123 125 128 131 137 136 129 124 123 115 108 103 93 86 93 83 69 56 46 40 32 22 15 10 6 356 349 349 358 34 49 39 35 31 26 25 22 17 13 9
142 139 130 123 121 125 132 143 143 131 119 105 90 89 87 89 82 79 99 78 56 42 31 18 8 10 13 14 7 4 1 14 41 50 41 38 32 28 28 26 21 16 12
148 138 127 128 125 123 122 121 116 119 121 101 81 66 75 71 64 69 74 53 39 38 19 1 357 10 15 22 15 14 18 25 40 54 46 39 31 27 27 25 23 19 16
137 131 123 126 125 117 115 120 122 113 104 96 85 63 63 64 48 55 65 41 41 21 8 356 352 8 13 24 27 22 26 31 40 61 52 43 35 28 25 23 23 21 19
141 139 136 137 130 121 105 103 99 90 95 102 84 61 52 57 40 30 53 44 36 22 12 354 1 12 16 22 26 26 27 28 40 57 58 49 41 33 27 24 22 21 21
147 144 143 139 131 130 124 110 96 98 97 93 85 69 55 49 37 31 41 39 27 20 8 2 14 12 12 21 25 29 28 25 34 41 51 50 46 40 35 30 26 24 25
148 144 144 139 130 129 119 110 103 103 98 91 87 69 55 45 34 36 41 34 20 16 13 13 12 11 13 21 29 32 33 30 35 38 44 49 48 45 43 38 34 30 26
139 139 142 139 129 125 116 108 101 90 85 84 83 73 57 44 34 36 37 27 20 21 14 14 20 16 15 15 14 11 27 34 37 40 46 50 52 52 49 44 39 33 29
142 140 135 126 128 122 112 106 95 90 83 85 82 75 62 47 38 45 40 23 21 27 18 14 25 22 15 2 341 350 17 23 29 43 53 56 53 51 47 42 38 33 29
136 136 135 130 130 125 119 117 111 106 109 103 94 85 70 57 43 38 47 30 20 30 24 23 16 18 10 343 329 320 269 210 112 62 63 65 62 54 46 39 35 28 27
131 133 138 136 141 140 140 144 144 145 138 119 115 106 79 63 56 39 31 39 26 33 21 18 17 6 6 358 350 324 289 210 163 135 89 72 64 58 50 40 29 24 20
140 143 141 141 145 147 148 148 136 124 125 128 119 106 102 80 74 53 47 48 41 25 14 17 18 1 350 26 20 345 341 341 320 175 133 126 72 52 50 28 22 25 25
147 150 148 145 144 144 139 124 105 88 77 115 154 143 131 96 89 66 30 36 39 41 16 0 4 10 336 334 59 71 21 304 324 290 221 170 157 235 285 331 34 20 7
145 136 131 136 139 142 142 146 151 160 174 184 163 148 141 140 122 116 28 3 5 15 327 302 10 338 319 293 315 316 196 192 281 312 303 276 247 246 255 296 39 347 342
135 134 135 136 139 145 148 153 157 162 170 151 135 150 160 159 167 167 206 226 233 225 227 278 312 304 273 259 284 305 303 288 239 237 279 297 309 280 259 238 206 219 275
136 138 142 143 149 149 149 154 163 168 174 164 169 181 187 178 174 177 196 218 225 219 218 230 238 266 262 260 263 266 255 256 273 263 271 289 292 285 277 246 216 211 240
Height
1521 1522 1524 1525 1526 1528 1529 1530 1530 1531 1532 1532 1533 1533 1533 1534 1534 1534 1534 1534 1535 1535 1535 1535 1535 1535 1535 1535 1535 1536 1536 1536 1536 1537 1537 1537 1537 1538 1537 1537 1537 1537 1538
1519 1521 1523 1525 1526 1528 1529 1530 1530 1531 1532 1532 1533 1533 1534 1534 1534 1535 1535 1535 1535 1535 1535 1535 1535 1535 1535 1535 1535 1536 1536 1536 1537 1537 1537 1538 1538 1538 1538 1538 1538 1538 1538
1519 1521 1523 1525 1526 1528 1529 1530 1531 1531 1532 1533 1533 1534 1534 1534 1535 1535 1535 1535 1535 1535 1535 1535 1535 1535 1535 1535 1535 1535 1536 1536 1537 1537 1538 1538 1538 1538 1538 1538 1538 1538 1538
1519 1521 1523 1524 1526 1527 1529 1530 1531 1532 1532 1533 1534 1534 1535 1535 1535 1535 1535 1535 1535 1535 1535 1535 1535 1535 1535 1535 1535 1535 1536 1536 1537 1537 1538 1538 1538 1538 1538 1538 1538 1538 1538
1519 1520 1522 1524 1526 1527 1529 1530 1531 1532 1532 1533 1534 1535 1535 1535 1535 1535 1535 1535 1535 1535 1535 1535 1535 1534 1534 1534 1535 1535 1535 1536 1537 1537 1537 1538 1538 1538 1538 1538 1538 1538 1538
1519 1520 1522 1524 1525 1527 1528 1530 1531 1532 1533 1533 1534 1535 1535 1535 1536 1536 1536 1535 1535 1535 1535 1535 1535 1534 1534 1534 1534 1535 1535 1536 1536 1537 1537 1537 1537 1537 1537 1537 1537 1537 1537
1518 1520 1522 1524 1525 1527 1528 1530 1531 1532 1533 1534 1534 1535 1535 1536 1536 1536 1536 1536 1535 1535 1535 1535 1534 1534 1534 1534 1534 1534 1535 1535 1536 1536 1536 1536 1536 1536 1536 1536 1536 1536 1537
1518 1520 1522 1523 1525 1527 1528 1530 1531 1532 1533 1534 1534 1535 1535 1536 1536 1536 1536 1536 1536 1535 1535 1535 1535 1534 1534 1534 1534 1534 1534 1535 1535 1535 1535 1535 1535 1535 1535 1535 1535 1535 1536
1518 1520 1521 1523 1525 1526 1528 1530 1531 1532 1533 1534 1535 1535 1535 1536 1536 1536 1536 1536 1536 1535 1535 1535 1535 1534 1534 1534 1534 1534 1534 1534 1534 1535 1534 1534 1534 1534 1534 1534 1534 1534 1534
1518 1519 1521 1523 1524 1526 1528 1529 1530 1532 1533 1534 1535 1535 1535 1536 1536 1536 1536 1536 1536 1536 1535 1535 1535 1534 1534 1534 1534 1534 1534 1534 1534 1534 1533 1533 1533 1533 1533 1533 1532 1532 1532
1517 1519 1520 1522 1524 1525 1527 1528 1530 1531 1532 1533 1534 1535 1535 1536 1536 1536 1536 1536 1536 1536 1535 1535 1535 1534 1534 1534 1534 1533 1533 1533 1533 1533 1532 1532 1532 1532 1531 1531 1531 1531 1531
1516 1518 1519 1521 1523 1525 1526 1528 1529 1531 1532 1533 1534 1534 1535 1535 1536 1536 1536 1536 1536 1535 1535 1535 1534 1534 1534 1533 1533 1533 1533 1532 1532 1531 1531 1531 1531 1531 1530 1530 1529 1529 1529
1515 1516 1518 1520 1522 1524 1525 1527 1528 1530 1531 1532 1533 1534 1534 1535 1535 1535 1535 1535 1535 1535 1535 1535 1534 1534 1533 1533 1533 1532 1532 1532 1531 1530 1530 1530 1530 1529 1529 1528 1528 1528 1527
1513 1515 1517 1519 1520 1522 1524 1526 1528 1529 1531 1532 1533 1533 1534 1534 1535 1535 1535 1535 1535 1535 1534 1534 1534 1533 1533 1533 1532 1532 1531 1531 1530 1529 1529 1529 1528 1528 1527 1527 1526 1526 1526
1512 1513 1515 1518 1519 1521 1523 1525 1526 1528 1529 1531 1532 1533 1533 1533 1534 1534 1534 1534 1534 1534 1534 1533 1533 1533 1532 1532 1531 1531 1531 1530 1529 1529 1528 1528 1527 1527 1526 1525 1525 1524 1524
1510 1512 1514 1516 1518 1519 1521 1523 1525 1527 1528 1530 1531 1531 1532 1533 1533 1533 1533 1533 1533 1533 1533 1533 1532 1532 1532 1531 1531 1530 1530 1529 1529 1528 1527 1526 1526 1525 1524 1524 1523 1523 1522
1509 1511 1513 1515 1517 1518 1520 1522 1523 1525 1527 1528 1529 1530 1531 1532 1532 1532 1533 1533 1533 1533 1532 1532 1532 1531 1531 1530 1530 1529 1529 1528 1528 1527 1526 1525 1525 1524 1523 1523 1522 1521 1521
1507 1510 1512 1514 1516 1517 1519 1520 1522 1524 1525 1527 1528 1529 1530 1530 1531 1531 1532 1532 1532 1532 1531 1531 1530 1530 1530 1529 1528 1528 1528 1527 1526 1526 1525 1525 1524 1523 1522 1521 1520 1520 1519
1506 1508 1510 1512 1514 1516 1517 1519 1521 1523 1524 1526 1526 1528 1529 1529 1530 1530 1530 1530 1530 1530 1530 1530 1529 1529 1528 1528 1527 1527 1526 1526 1525 1525 1524 1523 1523 1522 1521 1520 1519 1518 1517
1505 1506 1509 1511 1513 1514 1516 1518 1520 1522 1523 1524 1525 1526 1527 1528 1528 1529 1529 1529 1529 1529 1528 1528 1528 1527 1527 1526 1526 1525 1525 1524 1524 1523 1523 1522 1521 1520 1519 1518 1518 1517 1516
1503 1505 1507 1509 1511 1513 1515 1516 1518 1520 1522 1523 1524 1525 1525 1526 1527 1527 1527 1527 1527 1527 1527 1527 1526 1526 1525 1525 1524 1523 1523 1523 1522 1522 1521 1520 1520 1519 1518 1517 1516 1515 1514
1501 1503 1505 1507 1510 1512 1514 1515 1517 1518 1520 1521 1522 1523 1524 1524 1525 1525 1525 1526 1526 1526 1525 1525 1525 1524 1524 1523 1523 1522 1521 1522 1521 1520 1520 1519 1518 1517 1516 1515 1514 1512 1511
1500 1502 1503 1506 1508 1510 1512 1514 1516 1517 1518 1520 1521 1521 1522 1522 1523 1523 1523 1524 1524 1524 1523 1523 1523 1523 1522 1522 1522 1522 1521 1520 1519 1518 1517 1517 1516 1515 1514 1512 1511 1510 1509
1499 1500 1502 1505 1507 1509 1511 1512 1514 1515 1517 1518 1519 1519 1520 1520 1520 1521 1521 1521 1522 1521 1521 1521 1521 1521 1520 1520 1520 1520 1520 1519 1518 1516 1515 1514 1513 1512 1511 1510 1508 1507 1506
1498 1499 1501 1503 1505 1508 1509 1510 1512 1513 1515 1516 1516 1517 1517 1518 1518 1518 1519 1519 1519 1519 1519 1519 1519 1518 1518 1518 1518 1517 1517 1516 1515 1514 1512 1511 1510 1509 1508 1507 1506 1504 1503
1496 1498 1500 1502 1504 1505 1507 1508 1510 1511 1512 1513 1514 1514 1515 1515 1515 1516 1516 1516 1516 1516 1516 1516 1516 1516 1515 1515 1515 1514 1514 1513 1512 1511 1509 1507 1506 1505 1504 1503 1502 1501 1500